Tampa Macdill AFB, FL

2:49 PM EDT on September 26, 2017 (GMT -0400)
MacDill Air Force Base

Weather History for KMCF - March, 2014

Change the Weather History Date:

Thursday, March 13, 2014

  Actual Average Record
Temperature  
Mean Temperature 58 °F -  
Max Temperature 66 °F 75 °F 87 °F (1997)
Min Temperature 50 °F 57 °F 41 °F (1998)
Degree Days  
Heating Degree Days 7    
Growing Degree Days 8 (Base 50)    
Moisture  
Dew Point 48 °F    
Average Humidity 66    
Maximum Humidity 94    
Minimum Humidity 37    
Precipitation  
Precipitation 0.00 in - - ()
Sea Level Pressure  
Sea Level Pressure 30.06 in    
Wind  
Wind Speed 12 mph (NNW)    
Max Wind Speed 18 mph    
Max Gust Speed 28 mph    
Visibility 10 miles    
Events      
Averages and records for this station are not official NWS values.
T = Trace of Precipitation, MM = Missing Value Source: NWS Daily Summary

Daily Weather History Graph

Daily Weather History Graph

Search for Another Location

Airport or City:

Trip Planner

Search our weather history database for the weather conditions in past years. The results will help you decide how hot, cold, wet, or windy it might be!

Date:

Astronomy

Mar. 13, 2014 Rise Set
Actual Time 7:41 AM EDT 7:37 PM EDT
Civil Twilight 7:18 AM EDT 8:00 PM EDT
Nautical Twilight 6:51 AM EDT 8:28 PM EDT
Astronomical Twilight 6:24 AM EDT 8:55 PM EDT
Moon 5:12 PM EDT (3/13) 5:36 AM EDT (3/13)
Length of Visible Light 12h 42m
Length of Day
11h 55m
Waxing Gibbous, 91% of the Moon is Illuminated
Mar 13
Waxing Gibbous
Mar 16
Full
Mar 23
Last Quarter
Mar 30
New
Apr 7
First Quarter

Hourly Weather History & Observations

Time (EDT) Temp. Dew Point Humidity Pressure Visibility Wind Dir Wind Speed Gust Speed Precip Events Conditions
12:58 AM 66.6 °F 61.7 °F 84% 29.91 in 10.0 mi West 12.7 mph 23.0 mph N/A   Mostly Cloudy
1:08 AM 66.2 °F 60.8 °F 83% 29.90 in 10.0 mi WNW 11.5 mph 19.6 mph N/A   Scattered Clouds
1:58 AM 65.1 °F 61.7 °F 89% 29.90 in 10.0 mi West 12.7 mph 19.6 mph N/A   Scattered Clouds
2:03 AM 64.4 °F 62.6 °F 94% 29.89 in 10.0 mi WNW 11.5 mph 19.6 mph N/A   Mostly Cloudy
2:58 AM 66.0 °F 63.1 °F 90% 29.90 in 10.0 mi WNW 15.0 mph 20.7 mph N/A   Overcast
3:58 AM 64.0 °F 59.0 °F 84% 29.91 in 10.0 mi NW 15.0 mph 21.9 mph N/A   Overcast
4:23 AM 62.6 °F 57.2 °F 82% 29.92 in 10.0 mi NW 8.1 mph - N/A   Mostly Cloudy
4:58 AM 60.6 °F 55.6 °F 83% 29.94 in 10.0 mi NNW 13.8 mph 20.7 mph N/A   Clear
5:58 AM 58.3 °F 52.5 °F 81% 29.98 in 10.0 mi NNW 12.7 mph 21.9 mph N/A   Partly Cloudy
6:58 AM 55.0 °F 47.7 °F 76% 30.04 in 10.0 mi NNW 18.4 mph 27.6 mph N/A   Clear
7:58 AM 50.9 °F 42.3 °F 72% 30.08 in 10.0 mi North 15.0 mph 19.6 mph N/A   Clear
8:58 AM 52.0 °F 39.0 °F 61% 30.11 in 10.0 mi NNE 12.7 mph - N/A   Clear
9:58 AM 54.3 °F 37.4 °F 53% 30.14 in 10.0 mi NNE 12.7 mph 20.7 mph N/A   Clear
10:58 AM 57.0 °F 39.0 °F 51% 30.16 in 10.0 mi North 10.4 mph 18.4 mph N/A   Clear
11:58 AM 59.5 °F 36.9 °F 43% 30.16 in 10.0 mi North 11.5 mph - N/A   Clear
12:58 PM 62.6 °F 35.6 °F 37% 30.15 in 10.0 mi North 8.1 mph - N/A   Clear
1:58 PM 64.2 °F 39.0 °F 39% 30.14 in 10.0 mi Variable 6.9 mph - N/A   Clear
2:58 PM 65.1 °F 41.5 °F 42% 30.11 in 10.0 mi NW 11.5 mph - N/A   Clear
3:58 PM 65.3 °F 42.1 °F 43% 30.10 in 10.0 mi NNW 11.5 mph - N/A   Clear
4:58 PM 65.1 °F 42.4 °F 44% 30.10 in 10.0 mi NNW 10.4 mph - N/A   Clear
5:58 PM 63.5 °F 43.3 °F 48% 30.11 in 10.0 mi NNW 11.5 mph - N/A   Clear
6:58 PM 62.1 °F 44.1 °F 52% 30.12 in 10.0 mi NNW 11.5 mph 19.6 mph N/A   Clear
7:58 PM 57.7 °F 43.5 °F 59% 30.15 in 10.0 mi North 9.2 mph - N/A   Clear
8:58 PM 55.8 °F 43.5 °F 63% 30.17 in 10.0 mi North 12.7 mph 18.4 mph N/A   Clear
9:58 PM 54.9 °F 44.8 °F 69% 30.20 in 10.0 mi North 10.4 mph - N/A   Clear
10:58 PM 54.5 °F 45.9 °F 73% 30.22 in 10.0 mi NNE 8.1 mph - N/A   Clear
11:58 PM 53.8 °F 45.9 °F 75% 30.23 in 10.0 mi NNE 6.9 mph - N/A   Clear